Regional Weather Roundup
Issued by NWS

Home | Current Version | Previous Version | Graphics & Text | Print | Product List | Glossary On
Versions: 1 2 3 4 5 6 7 8 9 10 11 12 13 14 15 16 17 18 19 20 21 22 23 24 25 26 27
000
ASUS45 KSLC 170310
RWRUT

UTAH REGIONAL WEATHER ROUNDUP
NATIONAL WEATHER SERVICE SALT LAKE CITY UT
900 PM MDT WED AUG 16 2017

UTZ001>011-023>025-170400-

NORTHERN UTAH

CITY           SKY/WX    TMP DP  RH WIND       PRES   REMARKS
BRIGHAM CITY   PTCLDY    77  38  24 CALM      30.03R
HILL AFB       PTCLDY    76  38  25 E6        30.07R
LOGAN          NOT AVBL
OGDEN          PTCLDY    77  40  26 SE3       30.03R
SALT LAKE CITY MOCLDY    82  38  20 N6        30.02R
TOOELE VALLEY  MOCLDY    66  37  34 S5        30.05R
WENDOVER       MOCLDY    81  41  24 CALM      30.02R
HEBER CITY     PTCLDY    61  43  51 CALM      30.13R
WEST JORDAN    MOCLDY    77  50  38 CALM      30.06R

$$

UTZ011>015-024>027-170400-

CENTRAL/NORTHEAST UTAH

CITY           SKY/WX    TMP DP  RH WIND       PRES   REMARKS
PROVO AIRPORT  PTCLDY    71  48  43 NE3       30.06R
MOAB/CANYONLAN MOCLDY    77  25  14 W6        30.02R
DELTA          CLOUDY    73  37  27 E3        30.08R
PRICE          MOCLDY    71  37  28 SE6       30.15R
RICHFIELD      PTCLDY    75  39  27 NW12G23   30.15R
ROOSEVELT      CLOUDY    70  43  37 N8        30.15R
VERNAL         MOCLDY    72  42  34 N5        30.12R

$$

UTZ013>016-019>022-027-170400-

SOUTHERN UTAH

CITY           SKY/WX    TMP DP  RH WIND       PRES   REMARKS
BRYCE CANYON   MOCLDY    61  43  51 W8        30.28R
CEDAR CITY     CLOUDY    72  39  30 NE8       30.13R
MILFORD        MOCLDY    76  35  22 NE6       30.10R
ST GEORGE      PTCLDY    88  37  16 SW7       29.91R
HANKSVILLE     MOCLDY    81  32  17 W3        30.05S
KANAB          CLEAR     68  39  34 CALM      30.11R
BLANDING       PTCLDY    69  26  19 CALM      30.21R

$$

REGIONAL REPORTS     COLORADO/ARIZONA

CITY           SKY/WX    TMP DP  RH WIND       PRES   REMARKS
CRAIG, CO      CLEAR     60  39  45 CALM      30.18R
GRAND JUNCTION CLEAR     77  33  20 N9        30.05R
RIFLE, CO      CLEAR     77  33  20 CALM      30.12R
MONTROSE, CO   CLOUDY    70  44  39 S3        30.14R
CORTEZ, CO     CLEAR     64  34  32 CALM      30.15R
COLORADO CITY    N/A     75  41  29 N6        30.09R
PAGE, AZ       CLEAR     83  28  13 CALM      30.00R
GRAND CANYON   CLEAR     60  36  40 CALM      30.23R
KINGMAN, AZ    CLEAR     81  39  22 SW8       29.98R
FLAGSTAFF, AZ  CLEAR     59  42  53 CALM      30.26R

$$

REGIONAL REPORTS    NEVADA/IDAHO/WYOMING

CITY           SKY/WX    TMP DP  RH WIND       PRES   REMARKS
LAS VEGAS, NV  PTCLDY    93  39  15 SE5       29.87R
ELY, NY        MOCLDY    61  44  53 S8        30.20R
ELKO, NV       PTCLDY    78  35  21 CALM      30.07R
POCATELLO, ID  CLEAR     72  41  32 SW9       30.03R
BURLEY, ID     CLEAR     69  48  47 S8        30.01R
FORT BRIDGER,    N/A     66  32  28 SW13      30.25R
EVANSTON, WY   CLOUDY    61  39  44 S7        30.24R
ROCK SPRINGS,  PTCLDY    66  33  29 S6        30.19R
KEMMERER, WY     N/A     61  32  33 NW7       30.24R

$$




USA.gov is the U.S. government's official web portal to all federal, state and local government web resources and services.